This is the latest recevied weather packets stored in our database for station/object HARMALA. If no packets are shown the sender has not sent any weather packets the latest 10 day(s).
| Time | Temp. | Humidity | Pressure | Rain* | Wind** | Luminosity | Snow |
|---|---|---|---|---|---|---|---|
| 1777817230 | 13.89° C | 36% | 1007.6 hPa | 0 mm | - | - | - |
| 1777816030 | 13.33° C | 39% | 1007.7 hPa | 0 mm | - | - | - |
| 1777814830 | 13.33° C | 43% | 1007.8 hPa | 0 mm | - | - | - |
| 1777813629 | 12.78° C | 44% | 1008 hPa | 0 mm | - | - | - |
| 1777812429 | 12.22° C | 47% | 1008.2 hPa | 0 mm | - | - | - |
| 1777811230 | 12.22° C | 47% | 1008.3 hPa | 0 mm | - | - | - |
| 1777810029 | 12.78° C | 49% | 1008.4 hPa | 0 mm | - | - | - |
| 1777808829 | 12.22° C | 54% | 1008.5 hPa | 0 mm | - | - | - |
| 1777807629 | 11.67° C | 57% | 1008.4 hPa | 0 mm | - | - | - |
| 1777806429 | 11.11° C | 60% | 1008.3 hPa | 0 mm | - | - | - |
| 1777805234 | 12.22° C | 57% | 1008.2 hPa | 0 mm | - | - | - |
| 1777804029 | 11.67° C | 60% | 1008.2 hPa | 0 mm | - | - | - |
| 1777802829 | 11.11° C | 60% | 1008.3 hPa | 0 mm | - | - | - |
| 1777801629 | 11.67° C | 60% | 1008.2 hPa | 0 mm | - | - | - |
| 1777800429 | 10.56° C | 64% | 1008.3 hPa | 0 mm | - | - | - |
| 1777799229 | 10° C | 65% | 1008.2 hPa | 0 mm | - | - | - |
| 1777798029 | 10.56° C | 64% | 1008.1 hPa | 0 mm | - | - | - |
| 1777796829 | 10.56° C | 62% | 1008 hPa | 0 mm | - | - | - |
| 1777795629 | 10.56° C | 62% | 1007.7 hPa | 0 mm | - | - | - |
| 1777794428 | 10° C | 60% | 1007.8 hPa | 0 mm | - | - | - |
| 1777793228 | 10° C | 64% | 1007.4 hPa | 0 mm | - | - | - |
| 1777792028 | 10° C | 67% | 1007.2 hPa | 0 mm | - | - | - |
| 1777790828 | 10° C | 69% | 1007.2 hPa | 0 mm | - | - | - |
| 1777789628 | 9.44° C | 72% | 1007 hPa | 0 mm | - | - | - |
| 1777788428 | 8.33° C | 73% | 1006.8 hPa | 0 mm | - | - | - |
* Rain latest hour (hover to see other rain measurements)
** Current wind speed in m/s (hover to see current wind gust speed)